Showing default

YAM-9, 66694

Orbit data source: Space-Track

YAM-9, 66694 is an American payload satellite in SSO that was launched on Fri, 28 Nov 2025 UTC via an FALCON 9 launch vehicle from the Air Force Western Test Range (AFWTR). Payload-class satellites include a variety of spacecraft equipped with specific instruments for various scientific and technological missions. These include communications satellites like Starlink; space stations such as the ISS; scientific satellites like the Hubble; Earth observation satellites from companies like Planet Labs, Umbra, and HawkEye 360; GPS; miniature CubeSats for education and research; and military/defense satellites.

Loading next visibility...
Identifier
66694, 2025-276AE
Orbit
SSO
Country
Flag of USUS
Related business
Manufacturer
Airbus/Toulouse
Mission
Operational Commercial Technology
Bus & Motor
ARROW, Unknown motor
Mass
~150 kg wet, ~140 kg dry
Launch date (UTC)
2025-11-28 (6 months ago)
Launch vehicle
FALCON 9
Launch site
Air Force Western Test Range (AFWTR)
Object type
Payload
Rocket body
Debris
Shape & HBR
Trap Box + 2 Pan, 2.3 m
Radar Cross Section
2.032 m²

Expand to show TLE details & history
Last TLE update: 1 day ago

TLE from 1 day ago
0 YAM-9
1 66694U 25276AE  26144.14969667  .00004773  00000-0  26121-3 0  9994
2 66694  97.4216 217.2712 0009731  44.7933 315.4083 15.14679089 26714
Epoch: 2026-05-24T03:35Z
TLE epoch observation values (Epoch: 2026-05-24T03:35:33.792Z)
Latitude
-0.00003°
Longitude
-78.37558°
Altitude
520.256 km
Speed
7.606 km/s
True Right ascension
14h 29m 05s
True Declination
0° 00' 00"
Sunlit
Object was in full shadow at epoch
Visualization orbit readout
Latitude
Unknown
Longitude
Unknown
Altitude
Unknown
Speed
Unknown
Apparent Right ascension
Unknown
Apparent Declination
Unknown
Sunlit
N/A
Visualization observer readout
Local Sidereal Time
13:39:53
Azimuth
Unknown
Elevation
Unknown
Doppler factor
Unknown
Orbital elements
Apogee altitude
525.638 km
Perigee altitude
512.215 km
Semi-major axis
6,897.064 km
Eccentricity
0.00097
Inclination
97.4216°
RAAN
217.2712°
Arg. of periapsis
44.7933°
True anomaly
315.32995°
Mean anomaly
315.4083°
Eccentric anomaly
315.36913°
Mean motion
3.78919 °/min
Orbital period
95.01 mins
BSTAR
0.00026121
Loading maneuver chart data...
Computing Atmospheric mass density...
Loading historical data...
Loading historical data...
Loading historical data...
Loading historical data...
Loading historical data...
Loading historical data...
Loading historical data...

Documentation

Showing up to 5 results
|